Location: Newark
(34.9500°N, 139.9667°E)
Time: 04:34:30
(UTC+00:00)

Vanguard 2 Rocket - Pass Details

Date: 13 December 2019
Orbit: 554 x 3326 km, 32.9° (Epoch: 23 January)

Event Time Altitude Azimuth Distance (km) Brightness Sun altitude
Rises 06:30:35 0° 230° (SW) 7,292 13.9 9.3°
Reaches altitude 10° 06:35:53 10° 226° (SW) 6,166 13.8 8.4°
Maximum altitude 06:53:41 53° 157° (SSE) 2,918 9.7 5.4°
Drops below altitude 10° 07:04:57 10° 85° (E) 4,071 9.7 3.5°
Sets 07:07:41 0° 80° (E) 4,751 10.0 3.0°
